Norfolk, NE

9:21 PM CST on December 13, 2019 (GMT -0600)
Stefan Memorial

Weather History for KOFK - October, 2019

Change the Weather History Date:

Wednesday, October 23, 2019

  Actual Average Record
Temperature  
Mean Temperature 44 °F 48 °F  
Max Temperature 55 °F 60 °F 87 °F (1927)
Min Temperature 33 °F 36 °F 17 °F (1981)
Degree Days  
Heating Degree Days 21 17  
Month to date heating degree days 351 293  
Since 1 July heating degree days 381 435  
Cooling Degree Days 0 0  
Month to date cooling degree days 0 8  
Year to date cooling degree days 949 914  
Moisture  
Dew Point 37 °F    
Average Humidity 70    
Maximum Humidity 86    
Minimum Humidity 54    
Precipitation  
Precipitation 0.01 in 0.05 in 0.93 in (1906)
Month to date precipitation 1.93 1.66  
Year to date precipitation 23.96 24.88  
Snow  
Snow 0.00 in 0.10 in - ()
Month to date snowfall T 0.4  
Since 1 July snowfall T 0.4  
Since 1 September snowfall T 0.4  
Snow Depth 0.00 in    
Sea Level Pressure  
Sea Level Pressure 30.00 in    
Wind  
Wind Speed 12 mph (NNW)    
Max Wind Speed 25 mph    
Max Gust Speed 35 mph    
Visibility 9 miles    
Events Rain , Snow    
T = Trace of Precipitation, MM = Missing Value Source: NWS Daily Summary

Daily Weather History Graph

Daily Weather History Graph

Search for Another Location

Airport or City:

Astronomy

Oct. 23, 2019 Rise Set
Actual Time 7:51 AM CDT 6:36 PM CDT
Civil Twilight 7:22 AM CDT 7:04 PM CDT
Nautical Twilight 6:50 AM CDT 7:37 PM CDT
Astronomical Twilight 6:17 AM CDT 8:09 PM CDT
Moon 2:04 AM CDT (10/23) 4:34 PM CDT (10/23)
Length of Visible Light 11h 41m
Length of Day
10h 44m
Waning Crescent, 26% of the Moon is Illuminated
Oct 23
Waning Crescent
Oct 27
New
Nov 4
First Quarter
Nov 12
Full
Nov 19
Last Quarter

Hourly Weather History & Observations

Time (CDT) Temp. Windchill Dew Point Humidity Pressure Visibility Wind Dir Wind Speed Gust Speed Precip Events Conditions
12:56 AM 52.0 °F - 36.0 °F 54% 29.80 in 10.0 mi WSW 10.4 mph - N/A   Mostly Cloudy
1:56 AM 51.1 °F - 36.0 °F 56% 29.80 in 10.0 mi West 6.9 mph - N/A   Overcast
2:56 AM 46.9 °F - 37.9 °F 71% 29.78 in 10.0 mi SSW 4.6 mph - 0.00 in   Overcast
3:56 AM 42.1 °F 38.4 °F 37.0 °F 82% 29.76 in 10.0 mi SE 5.8 mph - N/A   Mostly Cloudy
4:56 AM 41.0 °F 35.8 °F 36.0 °F 82% 29.77 in 10.0 mi South 8.1 mph - N/A   Clear
5:56 AM 43.0 °F - 37.9 °F 82% 29.78 in 10.0 mi Calm Calm - N/A   Overcast
6:56 AM 41.0 °F 39.0 °F 36.0 °F 82% 29.78 in 10.0 mi East 3.5 mph - N/A   Overcast
7:56 AM 41.0 °F 39.0 °F 37.0 °F 86% 29.78 in 10.0 mi SSE 3.5 mph - N/A   Mostly Cloudy
8:56 AM 42.1 °F 38.4 °F 37.9 °F 85% 29.82 in 10.0 mi West 5.8 mph - 0.00 in   Overcast
9:56 AM 45.0 °F 43.5 °F 39.9 °F 82% 29.82 in 10.0 mi North 3.5 mph - 0.01 in   Mostly Cloudy
10:56 AM 48.9 °F - 44.1 °F 83% 29.86 in 10.0 mi NW 11.5 mph - N/A   Mostly Cloudy
11:56 AM 50.0 °F - 44.1 °F 80% 29.88 in 10.0 mi NNW 12.7 mph - N/A   Overcast
12:56 PM 54.0 °F - 42.1 °F 64% 29.88 in 10.0 mi NW 21.9 mph - N/A   Scattered Clouds
1:43 PM 52.0 °F - 39.9 °F 63% 29.89 in 10.0 mi NW 18.4 mph 28.8 mph N/A   Mostly Cloudy
1:51 PM 53.6 °F - 39.2 °F 58% 29.89 in 10.0 mi NNW 17.3 mph 27.6 mph N/A   Mostly Cloudy
1:56 PM 54.0 °F - 39.9 °F 59% 29.89 in 10.0 mi NNW 21.9 mph 27.6 mph N/A   Mostly Cloudy
2:56 PM 55.0 °F - 41.0 °F 59% 29.91 in 10.0 mi NNW 16.1 mph 21.9 mph N/A   Scattered Clouds
3:56 PM 50.0 °F - 39.9 °F 68% 29.97 in 10.0 mi NNW 12.7 mph - N/A   Overcast
4:56 PM 50.0 °F - 39.9 °F 68% 30.00 in 10.0 mi North 12.7 mph - 0.00 in   Scattered Clouds
5:37 PM 48.0 °F - 39.0 °F 71% 30.01 in 10.0 mi North 17.3 mph 23.0 mph N/A   Overcast
5:56 PM 45.0 °F 38.2 °F 37.9 °F 76% 30.05 in 10.0 mi NNE 15.0 mph - N/A   Overcast
6:22 PM 44.1 °F 37.7 °F 37.0 °F 76% 30.06 in 10.0 mi NNE 12.7 mph - N/A   Overcast
6:56 PM 42.1 °F 34.2 °F 37.0 °F 82% 30.14 in 7.0 mi North 16.1 mph - N/A   Overcast
7:06 PM 42.1 °F 35.7 °F 37.0 °F 82% 30.12 in 5.0 mi North 11.5 mph - 0.00 in Rain Light Rain
7:20 PM 39.0 °F 28.8 °F 35.1 °F 86% 30.14 in 5.0 mi NNW 21.9 mph 33.4 mph 0.00 in Rain Light Rain
7:56 PM 37.9 °F 27.1 °F 35.1 °F 89% 30.20 in 3.0 mi North 23.0 mph 29.9 mph 0.00 in Snow Light Snow
8:38 PM 37.0 °F 26.4 °F 34.0 °F 89% 30.19 in 10.0 mi NNW 20.7 mph 27.6 mph 0.00 in   Overcast
8:56 PM 37.0 °F 27.0 °F 33.1 °F 86% 30.24 in 10.0 mi NNW 18.4 mph 31.1 mph 0.00 in   Overcast
9:06 PM 37.0 °F 27.4 °F 34.0 °F 89% 30.20 in 10.0 mi NNW 17.3 mph 26.5 mph N/A   Overcast
9:10 PM 36.0 °F 25.0 °F 33.1 °F 89% 30.20 in 10.0 mi NNW 20.7 mph 29.9 mph N/A   Overcast
9:25 PM 36.0 °F 25.3 °F 33.1 °F 89% 30.19 in 10.0 mi North 19.6 mph 27.6 mph N/A   Overcast
9:56 PM 37.0 °F 27.0 °F 33.1 °F 86% 30.25 in 10.0 mi NNW 18.4 mph 25.3 mph N/A   Overcast
10:46 PM 37.0 °F 30.4 °F 34.0 °F 89% 30.28 in 10.0 mi NW 9.2 mph - N/A   Overcast
10:56 PM 37.0 °F 30.4 °F 34.0 °F 89% 30.30 in 10.0 mi NW 9.2 mph - N/A   Overcast
11:26 PM 37.0 °F 28.9 °F 33.1 °F 86% 30.29 in 10.0 mi NNW 12.7 mph - 0.00 in   Overcast
11:56 PM 36.0 °F 27.1 °F 30.0 °F 79% 30.34 in 10.0 mi NW 13.8 mph 21.9 mph 0.00 in   Mostly Cloudy